Regional Weather Roundup
Issued by NWS

Home | Current Version | Previous Version | Graphics & Text | Print | Product List | Glossary On
Versions: 1 2 3 4 5 6 7 8 9 10 11 12 13 14 15 16 17 18 19 20 21 22 23 24 25 26 27 28 29 30 31 32 33 34 35 36 37 38 39 40 41 42 43 44 45 46 47 48 49 50
000
ASUS43 KFSD 092202
RWRSD

WEATHER ROUNDUP FOR SOUTH DAKOTA
NATIONAL WEATHER SERVICE SIOUX FALLS SD
400 PM CST TUE FEB 09 2016

NOTE: "FAIR" INDICATES FEW OR NO CLOUDS BELOW 12,000 FEET WITH NO
SIGNIFICANT WEATHER AND/OR OBSTRUCTIONS TO VISIBILITY.


SDZ001>005-009-010-012>017-092300-
NORTHWEST AND NORTH CENTRAL SOUTH DAKOTA

CITY           SKY/WX    TMP DP  RH WIND       PRES   REMARKS
BUFFALO          N/A     47  30  51 NW15      30.04F
FAITH            N/A     43  23  45 NW15      30.10F
MOBRIDGE       CLOUDY    38  17  42 VRB3      30.13S
$$

SDZ012>016-024>037-041>051-057-063-072>074-092300-
SOUTHWEST AND SOUTH CENTRAL SOUTH DAKOTA

CITY           SKY/WX    TMP DP  RH WIND       PRES   REMARKS
RAPID CTY ARPT CLOUDY    53  29  39 NW21G30   30.11F
PIERRE         CLOUDY    35  15  44 SW9       30.16F WCI  28
CUSTER         CLOUDY    47  23  38 W16G25    30.14S
ELLSWORTH AFB  CLOUDY    52  29  42 NW17      30.10F
PHILIP         CLOUDY    42  27  55 W7        30.13F
PINE RIDGE     CLOUDY    46  30  53 S3        30.14F
WINNER         MOCLDY    34  14  43 SW13      30.17F WCI  25
$$

SDZ004>011-016>023-039-040-092300-
NORTHEAST SOUTH DAKOTA

CITY           SKY/WX    TMP DP  RH WIND       PRES   REMARKS
ABERDEEN       CLOUDY    31  13  47 E8        30.20S WCI  23
WATERTOWN      CLOUDY    22  10  60 NW14      30.17F WCI   9
BROOKINGS      CLOUDY    21  11  65 NW13      30.18R WCI   9
SISSETON         N/A     20  10  65 N12       30.22S WCI   8
$$

SDZ017-020-022-023-036>040-048>070-092300-
SOUTHEAST SOUTH DAKOTA

CITY           SKY/WX    TMP DP  RH WIND       PRES   REMARKS
SIOUX FALLS    CLOUDY    23  11  60 NW13      30.21S WCI  11
HURON          CLOUDY    31  13  47 VRB3      30.21F
CHAMBERLAIN    CLOUDY    32  14  47 SW6       30.20F WCI  26
MITCHELL       CLOUDY    30  13  49 NW7       30.24F WCI  23
YANKTON        PTSUNNY   28  10  47 NW16      30.24S WCI  17
$$

ABBREVIATIONS USED IN REMARKS
   TC - TEMPERATURE IN CELSIUS
  WCI - WIND CHILL INDEX
   HX - HEAT INDEX
  VSB - VISIBILITY





USA.gov is the U.S. government's official web portal to all federal, state and local government web resources and services.